EW3230 Weather Reports


time (UTC)temp
F
wind
direction
speed
knots
gust
knots
rain 1hr
in
rain 24hr
in
rain mn
in
humidity
%
barometer
mb
20260505041150 52 207 0.0 1.7 0.00 0.00 0.00 81 1012.6
20260505040147 52 204 0.0 0.9 0.00 0.00 0.00 81 1012.6
20260505035149 52 212 0.0 1.7 0.00 0.00 0.00 81 1012.7
20260505033648 52 208 0.0 0.9 0.00 0.00 0.00 81 1012.7
20260505032145 52 209 0.0 0.9 0.00 0.00 0.00 81 1012.8
20260505031142 52 165 0.0 0.9 0.00 0.00 0.00 81 1012.9
20260505030140 52 148 0.0 1.7 0.00 0.00 0.00 81 1012.9
20260505025642 52 172 0.0 1.7 0.00 0.00 0.00 81 1012.9
20260505024141 52 145 0.0 0.9 0.00 0.00 0.00 81 1012.8
20260505023141 52 112 0.0 0.9 0.00 0.00 0.00 80 1013.0
20260505022144 52 221 0.0 0.9 0.00 0.00 0.00 80 1013.0
20260505021142 53 198 0.0 2.6 0.00 0.00 0.00 80 1012.9
20260505020142 53 215 0.0 2.6 0.00 0.00 0.00 80 1012.9
20260505015138 53 201 0.0 2.6 0.00 0.00 0.00 80 1012.8
20260505014138 53 215 0.0 2.6 0.00 0.00 0.00 79 1012.7
20260505013139 53 205 0.0 1.7 0.00 0.00 0.00 79 1012.5
20260505012137 53 221 0.0 1.7 0.00 0.00 0.00 78 1012.5
20260505011640 54 124 0.0 2.6 0.00 0.00 0.00 77 1012.2
20260505010151 54 148 0.9 5.2 0.00 0.00 0.00 76 1012.1
20260505005140 54 246 0.9 2.6 0.00 0.00 0.00 75 1011.9
20260505004142 55 203 0.9 3.5 0.00 0.00 0.00 74 1011.8
20260505003138 55 212 0.9 3.5 0.00 0.00 0.00 73 1011.5
20260505002137 55 197 0.9 3.5 0.00 0.00 0.00 72 1011.4
20260505001138 55 247 0.9 5.2 0.00 0.00 0.00 72 1011.2
20260505000138 56 195 0.9 2.6 0.00 0.00 0.00 71 1011.1
20260504235137 56 141 0.9 4.3 0.00 0.00 0.00 71 1011.2
20260504234137 56 210 1.7 4.3 0.00 0.00 0.00 69 1010.9
20260504233638 57 174 0.9 5.2 0.00 0.00 0.00 68 1010.8
20260504232138 57 190 1.7 8.7 0.00 0.00 0.00 67 1010.8
20260504231136 57 229 1.7 7.0 0.00 0.00 0.00 65 1010.7
20260504230135 58 217 1.7 5.2 0.00 0.00 0.00 64 1010.5
20260504225137 58 195 1.7 7.0 0.00 0.00 0.00 63 1010.4
20260504224136 59 235 2.6 6.1 0.00 0.00 0.00 61 1010.3
20260504223136 60 174 1.7 6.1 0.00 0.00 0.00 59 1010.3
20260504222135 61 155 1.7 6.1 0.00 0.00 0.00 56 1010.3
20260504221134 61 203 2.6 7.0 0.00 0.00 0.00 55 1010.2
20260504220133 62 215 1.7 7.0 0.00 0.00 0.00 54 1010.2
20260504215134 62 214 2.6 7.0 0.00 0.00 0.00 54 1010.2
20260504214137 63 186 1.7 7.0 0.00 0.00 0.00 52 1010.3
20260504213133 64 212 1.7 7.0 0.00 0.00 0.00 52 1010.2
20260504212134 64 134 3.5 7.0 0.00 0.00 0.00 51 1010.1
20260504211141 64 229 2.6 8.7 0.00 0.00 0.00 51 1010.1
20260504210128 65 224 3.5 7.0 0.00 0.00 0.00 49 1010.0
20260504205630 65 208 2.6 7.8 0.00 0.00 0.00 48 1010.0
20260504204129 65 173 3.5 10.4 0.00 0.00 0.00 47 1009.8
20260504203142 67 221 2.6 9.6 0.00 0.00 0.00 44 1009.8
20260504202130 66 203 3.5 9.6 0.00 0.00 0.00 43 1009.8
20260504201128 67 229 2.6 7.8 0.00 0.00 0.00 41 1009.8
20260504200129 67 217 4.3 12.2 0.00 0.00 0.00 40 1009.7
20260504195130 67 192 3.5 9.6 0.00 0.00 0.00 38 1009.8
20260504194131 67 172 3.5 9.6 0.00 0.00 0.00 39 1010.0
20260504193132 67 186 4.3 9.6 0.00 0.00 0.00 37 1009.9
20260504192131 67 248 4.3 11.3 0.00 0.00 0.00 37 1009.8
20260504191129 67 163 5.2 10.4 0.00 0.00 0.00 37 1009.8
20260504190129 67 267 4.3 14.8 0.00 0.00 0.00 37 1009.9
20260504185129 67 167 4.3 13.0 0.00 0.00 0.00 38 1010.2
20260504184630 68 253 3.5 10.4 0.00 0.00 0.00 39 1010.1
20260504183129 68 256 2.6 12.2 0.00 0.00 0.00 41 1010.3
20260504182128 68 267 3.5 8.7 0.00 0.00 0.00 40 1009.9
20260504181128 68 225 3.5 9.6 0.00 0.00 0.00 40 1010.0
20260504180127 68 271 3.5 9.6 0.00 0.00 0.00 41 1009.9
20260504175130 68 204 3.5 10.4 0.00 0.00 0.00 39 1009.7
20260504174126 68 233 3.5 8.7 0.00 0.00 0.00 38 1009.8
20260504173126 68 204 3.5 9.6 0.00 0.00 0.00 37 1009.8
20260504172628 68 237 3.5 11.3 0.00 0.00 0.00 37 1010.0
20260504171130 69 221 3.5 7.0 0.00 0.00 0.00 36 1010.0
20260504170126 69 242 2.6 9.6 0.00 0.00 0.00 37 1010.0
20260504160122 68 128 1.7 6.1 0.00 0.00 0.00 39 1010.7
20260504150619 68 248 1.7 7.0 0.00 0.00 0.00 40 1011.0
20260504141119 65 200 1.7 7.8 0.00 0.00 0.00 41 1011.6
20260504140117 65 161 1.7 4.3 0.00 0.00 0.00 43 1011.7
20260504130121 60 239 0.9 5.2 0.00 0.00 0.00 50 1012.1
20260504130115 61 203 0.0 1.7 0.00 0.00 0.00 49 1012.0
20260504120124 54 283 0.0 3.5 0.00 0.00 0.00 63 1012.2
20260504090107 44 280 0.0 0.0 0.00 0.00 0.00 79 1011.9
20260504081552 43 280 0.0 0.0 0.00 0.00 0.00 79 1011.8
20260504080604 42 280 0.0 0.0 0.00 0.01 0.00 80 1011.7
20260504045040 40 278 0.0 0.9 0.00 0.04 0.00 75 1011.3
20260504044039 39 281 0.0 0.0 0.00 0.04 0.00 76 1011.5
20260504043540 39 287 0.0 0.0 0.00 0.04 0.00 78 1011.4